Radiation Dose at Monitoring Post of Fukushima Daini Nuclear Power Station
Date,Time,MP-1(microSv/h),MP-2(microSv/h),MP-3(microSv/h),MP-4(microSv/h),MP-5(microSv/h),MP-6(microSv/h),MP-7(microSv/h),Wind Direction,Wind Velocity(m/s),Rain
2013/10/27,00:00,0.8,0.5,0.8,0.7,0.7,0.3,0.3,north-northwest,4.6,No
2013/10/27,00:10,0.8,0.5,0.8,0.7,0.7,0.3,0.3,north,4.8,No
2013/10/27,00:20,0.8,0.5,0.8,0.7,0.7,0.3,0.3,north-northwest,3.9,No
2013/10/27,00:30,0.8,0.5,0.8,0.7,0.7,0.3,0.3,north,3.4,No
2013/10/27,00:40,0.8,0.5,0.8,0.7,0.7,0.3,0.3,north,3.4,No
2013/10/27,00:50,0.8,0.5,0.8,0.7,0.7,0.3,0.3,north-northwest,2.6,No
2013/10/27,01:00,0.8,0.5,0.8,0.7,0.7,0.3,0.3,north,3.0,No
2013/10/27,01:10,0.8,0.5,0.8,0.7,0.7,0.3,0.3,north,2.3,No
2013/10/27,01:20,0.8,0.5,0.8,0.7,0.7,0.3,0.3,north,2.2,No
2013/10/27,01:30,0.8,0.5,0.8,0.7,0.7,0.3,0.3,north,1.9,No
2013/10/27,01:40,0.8,0.5,0.8,0.7,0.7,0.3,0.3,north,2.7,No
2013/10/27,01:50,0.8,0.5,0.8,0.7,0.7,0.3,0.3,north-northwest,1.7,No
2013/10/27,02:00,0.8,0.5,0.8,0.7,0.7,0.3,0.3,north-northwest,1.1,No
2013/10/27,02:10,0.8,0.5,0.8,0.7,0.7,0.3,0.3,northwest,2.2,No
2013/10/27,02:20,0.8,0.5,0.8,0.7,0.7,0.3,0.3,northwest,3.2,No
2013/10/27,02:30,0.8,0.5,0.8,0.7,0.7,0.3,0.3,north,3.3,No
2013/10/27,02:40,0.8,0.5,0.8,0.7,0.7,0.3,0.3,north,3.1,No
2013/10/27,02:50,0.8,0.5,0.8,0.7,0.7,0.3,0.3,north-northwest,3.1,No
2013/10/27,03:00,0.8,0.5,0.8,0.8,0.7,0.3,0.3,northwest,3.9,No
2013/10/27,03:10,0.8,0.5,0.8,0.8,0.7,0.3,0.3,northwest,2.8,No
2013/10/27,03:20,0.8,0.5,0.8,0.7,0.7,0.3,0.3,north-northwest,3.4,No
2013/10/27,03:30,0.8,0.5,0.8,0.7,0.7,0.3,0.3,north,2.7,No
2013/10/27,03:40,0.8,0.5,0.8,0.7,0.7,0.3,0.3,north-northwest,2.8,No
2013/10/27,03:50,0.8,0.5,0.8,0.7,0.7,0.3,0.3,north,3.2,No
2013/10/27,04:00,0.8,0.5,0.8,0.7,0.7,0.3,0.3,north,3.8,No
2013/10/27,04:10,0.8,0.5,0.8,0.7,0.7,0.3,0.3,northwest,2.8,No
2013/10/27,04:20,0.8,0.5,0.8,0.7,0.7,0.3,0.3,west-northwest,2.1,No
2013/10/27,04:30,0.8,0.5,0.8,0.8,0.7,0.3,0.3,northwest,2.2,No
2013/10/27,04:40,0.8,0.5,0.8,0.8,0.7,0.3,0.3,west-northwest,1.6,No
2013/10/27,04:50,0.8,0.5,0.8,0.7,0.7,0.3,0.3,west-southwest,2.6,No
2013/10/27,05:00,0.8,0.5,0.8,0.7,0.7,0.3,0.3,west,3.5,No
2013/10/27,05:10,0.8,0.5,0.8,0.8,0.7,0.3,0.3,west,2.8,No
2013/10/27,05:20,0.8,0.5,0.8,0.8,0.7,0.3,0.3,west,2.5,No
2013/10/27,05:30,0.8,0.5,0.8,0.7,0.7,0.3,0.3,west-northwest,3.6,No
2013/10/27,05:40,0.8,0.5,0.8,0.7,0.7,0.3,0.3,west,3.8,No
2013/10/27,05:50,0.8,0.5,0.8,0.7,0.7,0.3,0.3,west,2.8,No
2013/10/27,06:00,0.8,0.5,0.8,0.8,0.7,0.3,0.3,west-northwest,2.7,No
2013/10/27,06:10,0.8,0.5,0.8,0.8,0.7,0.3,0.3,west,2.8,No
2013/10/27,06:20,0.8,0.5,0.8,0.8,0.7,0.3,0.3,west-southwest,1.6,No
2013/10/27,06:30,0.8,0.5,0.8,0.8,0.7,0.3,0.3,west,3.0,No
2013/10/27,06:40,0.8,0.5,0.8,0.7,0.7,0.3,0.3,west-southwest,3.8,No
2013/10/27,06:50,0.8,0.5,0.8,0.8,0.7,0.3,0.3,west,2.8,No
2013/10/27,07:00,0.8,0.5,0.8,0.7,0.7,0.3,0.3,west-northwest,2.8,No
2013/10/27,07:10,0.8,0.5,0.8,0.7,0.7,0.3,0.3,west,4.2,No
2013/10/27,07:20,0.8,0.5,0.8,0.8,0.7,0.3,0.3,west-northwest,4.6,No
2013/10/27,07:30,0.8,0.5,0.8,0.8,0.7,0.3,0.3,northwest,3.9,No
2013/10/27,07:40,0.8,0.5,0.8,0.8,0.7,0.3,0.3,north-northeast,1.9,No
2013/10/27,07:50,0.8,0.5,0.8,0.8,0.7,0.3,0.3,east-northeast,2.1,No
2013/10/27,08:00,0.8,0.5,0.8,0.8,0.7,0.3,0.3,east,1.9,No
2013/10/27,08:10,0.8,0.5,0.8,0.8,0.7,0.3,0.3,east-southeast,1.1,No
2013/10/27,08:20,0.8,0.5,0.8,0.8,0.7,0.3,0.3,north-northeast,1.6,No
2013/10/27,08:30,0.8,0.5,0.8,0.8,0.7,0.3,0.3,northwest,2.9,No
2013/10/27,08:40,0.8,0.5,0.8,0.8,0.7,0.3,0.3,west-northwest,4.2,No
2013/10/27,08:50,0.8,0.5,0.8,0.8,0.7,0.3,0.3,west-northwest,7.9,No
2013/10/27,09:00,0.8,0.5,0.8,0.8,0.7,0.3,0.3,west-northwest,7.3,No
2013/10/27,09:10,0.8,0.5,0.8,0.8,0.7,0.3,0.3,west-northwest,9.4,No
2013/10/27,09:20,0.8,0.5,0.8,0.8,0.7,0.3,0.3,northwest,6.4,No
2013/10/27,09:30,0.8,0.5,0.8,0.8,0.7,0.3,0.3,west-northwest,8.0,No
2013/10/27,09:40,0.8,0.5,0.8,0.8,0.7,0.3,0.3,northwest,10.6,No
2013/10/27,09:50,0.8,0.5,0.8,0.8,0.7,0.3,0.3,west-northwest,9.8,No
2013/10/27,10:00,0.8,0.5,0.8,0.8,0.7,0.3,0.3,west-northwest,11.2,No
2013/10/27,10:10,0.8,0.5,0.8,0.8,0.7,0.3,0.3,west-northwest,10.3,No
2013/10/27,10:20,0.8,0.5,0.8,0.8,0.7,0.3,0.3,west-northwest,9.8,No
2013/10/27,10:30,0.8,0.5,0.8,0.8,0.7,0.3,0.3,west-northwest,9.8,No
2013/10/27,10:40,0.8,0.5,0.8,0.8,0.7,0.3,0.3,west,11.0,No
2013/10/27,10:50,0.8,0.5,0.8,0.8,0.7,0.3,0.3,west-northwest,8.3,No
2013/10/27,11:00,0.8,0.5,0.8,0.8,0.7,0.3,0.3,west-northwest,6.4,No
2013/10/27,11:10,0.8,0.5,0.8,0.8,0.7,0.3,0.3,west-northwest,8.0,No
2013/10/27,11:20,0.8,0.5,0.8,0.8,0.7,0.3,0.3,west-northwest,9.5,No
2013/10/27,11:30,0.8,0.5,0.8,0.8,0.7,0.3,0.3,west,10.9,No
2013/10/27,11:40,0.8,0.5,0.8,0.8,0.7,0.3,0.3,west-northwest,12.5,No
2013/10/27,11:50,0.8,0.5,0.8,0.8,0.7,0.3,0.3,west,12.9,No
2013/10/27,12:00,0.8,0.5,0.8,0.8,0.7,0.3,0.3,west,10.4,No
2013/10/27,12:10,0.8,0.5,0.8,0.8,0.7,0.3,0.3,west,10.7,No
2013/10/27,12:20,0.8,0.5,0.8,0.8,0.7,0.3,0.3,west-northwest,9.9,No
2013/10/27,12:30,0.8,0.5,0.8,0.8,0.7,0.3,0.3,west,12.3,No
2013/10/27,12:40,0.8,0.5,0.8,0.8,0.7,0.3,0.3,west-northwest,10.8,No
2013/10/27,12:50,0.8,0.5,0.8,0.8,0.7,0.3,0.3,west-northwest,9.2,No
2013/10/27,13:00,0.8,0.5,0.8,0.8,0.7,0.3,0.3,west-northwest,9.8,No
2013/10/27,13:10,0.8,0.5,0.8,0.8,0.7,0.3,0.3,west,9.7,No
2013/10/27,13:20,0.8,0.5,0.8,0.8,0.7,0.3,0.3,west,7.5,No
2013/10/27,13:30,0.8,0.5,0.8,0.8,0.7,0.3,0.3,west-northwest,7.8,No
2013/10/27,13:40,0.8,0.5,0.8,0.8,0.7,0.3,0.3,west-northwest,9.5,No
2013/10/27,13:50,0.8,0.5,0.8,0.8,0.7,0.3,0.3,west-northwest,9.2,No
2013/10/27,14:00,0.8,0.5,0.8,0.8,0.7,0.3,0.3,west-northwest,7.9,No
2013/10/27,14:10,0.8,0.5,0.8,0.8,0.7,0.3,0.3,west-northwest,11.0,No
2013/10/27,14:20,0.8,0.5,0.8,0.8,0.7,0.3,0.3,west,10.7,No
2013/10/27,14:30,0.8,0.5,0.8,0.8,0.7,0.3,0.3,west-northwest,5.4,No
2013/10/27,14:40,0.8,0.5,0.8,0.8,0.7,0.3,0.3,west-northwest,8.4,No
2013/10/27,14:50,0.8,0.5,0.8,0.8,0.7,0.3,0.3,west-northwest,9.3,No
2013/10/27,15:00,0.8,0.5,0.8,0.8,0.7,0.3,0.3,northwest,9.5,No
2013/10/27,15:10,0.8,0.5,0.8,0.8,0.7,0.3,0.3,west-northwest,5.6,No
2013/10/27,15:20,0.8,0.5,0.8,0.8,0.7,0.3,0.3,northwest,4.0,No
2013/10/27,15:30,0.8,0.5,0.8,0.8,0.7,0.3,0.3,north-northwest,2.4,No
2013/10/27,15:40,0.8,0.5,0.8,0.8,0.7,0.3,0.3,north-northwest,5.0,No
2013/10/27,15:50,0.8,0.5,0.8,0.8,0.7,0.3,0.3,northwest,4.4,No
2013/10/27,16:00,0.8,0.5,0.8,0.8,0.7,0.3,0.3,northwest,4.9,No
2013/10/27,16:10,0.8,0.5,0.8,0.8,0.7,0.3,0.3,northwest,5.9,No
2013/10/27,16:20,0.8,0.5,0.8,0.8,0.7,0.3,0.3,northwest,5.2,No
2013/10/27,16:30,0.8,0.5,0.8,0.8,0.7,0.3,0.3,northwest,4.2,No
2013/10/27,16:40,0.8,0.5,0.8,0.8,0.7,0.3,0.3,west-northwest,4.1,No
2013/10/27,16:50,0.8,0.5,0.8,0.8,0.7,0.3,0.3,west-northwest,5.6,No
2013/10/27,17:00,0.8,0.5,0.8,0.8,0.7,0.3,0.3,west-northwest,3.3,No
2013/10/27,17:10,0.8,0.5,0.8,0.8,0.7,0.4,0.3,west-northwest,4.2,No
2013/10/27,17:20,0.8,0.5,0.8,0.8,0.7,0.3,0.3,west-northwest,3.7,No
2013/10/27,17:30,0.8,0.5,0.8,0.8,0.7,0.4,0.3,west-northwest,3.1,No
2013/10/27,17:40,0.8,0.5,0.8,0.8,0.7,0.4,0.3,northwest,3.3,No
2013/10/27,17:50,0.8,0.5,0.8,0.8,0.7,0.3,0.3,northwest,3.5,No
2013/10/27,18:00,0.8,0.5,0.8,0.8,0.7,0.4,0.3,northwest,2.3,No
2013/10/27,18:10,0.8,0.5,0.8,0.8,0.7,0.3,0.3,north-northwest,1.9,No
2013/10/27,18:20,0.8,0.5,0.8,0.8,0.7,0.4,0.3,northwest,2.1,No
2013/10/27,18:30,0.8,0.5,0.8,0.8,0.7,0.4,0.3,northwest,2.5,No
2013/10/27,18:40,0.8,0.5,0.8,0.8,0.7,0.3,0.3,north-northwest,2.2,No
2013/10/27,18:50,0.8,0.5,0.8,0.8,0.7,0.3,0.3,north-northwest,2.4,No
2013/10/27,19:00,0.8,0.5,0.8,0.8,0.7,0.4,0.3,north-northwest,1.9,No
2013/10/27,19:10,0.8,0.5,0.8,0.8,0.7,0.4,0.3,north-northwest,1.9,No
2013/10/27,19:20,0.8,0.5,0.8,0.8,0.7,0.4,0.3,northwest,1.4,No
2013/10/27,19:30,0.8,0.5,0.8,0.8,0.7,0.4,0.3,northwest,1.7,No
2013/10/27,19:40,0.8,0.5,0.8,0.8,0.7,0.3,0.3,north,1.9,No
2013/10/27,19:50,0.8,0.5,0.8,0.8,0.7,0.3,0.3,north-northwest,1.7,No
2013/10/27,20:00,0.8,0.5,0.8,0.8,0.7,0.4,0.3,north-northwest,2.8,No
2013/10/27,20:10,0.8,0.5,0.8,0.8,0.7,0.3,0.3,north-northwest,2.6,No
2013/10/27,20:20,0.8,0.5,0.8,0.8,0.7,0.4,0.3,north-northwest,2.4,No
2013/10/27,20:30,0.8,0.5,0.8,0.8,0.7,0.4,0.3,north-northwest,2.2,No
2013/10/27,20:40,0.8,0.5,0.8,0.8,0.7,0.3,0.3,northwest,1.2,No
2013/10/27,20:50,0.8,0.5,0.8,0.8,0.7,0.3,0.3,northwest,0.6,No
2013/10/27,21:00,0.8,0.5,0.8,0.8,0.7,0.3,0.3,north-northwest,0.5,No
2013/10/27,21:10,0.8,0.5,0.8,0.8,0.7,0.3,0.3,west-northwest,0.9,No
2013/10/27,21:20,0.8,0.5,0.8,0.8,0.7,0.3,0.3,west,0.6,No
2013/10/27,21:30,0.8,0.5,0.8,0.8,0.7,0.3,0.3,west-northwest,0.8,No
2013/10/27,21:40,0.8,0.5,0.8,0.8,0.7,0.3,0.3,west-northwest,1.3,No
2013/10/27,21:50,0.8,0.5,0.8,0.8,0.7,0.4,0.3,northwest,1.4,No
2013/10/27,22:00,0.8,0.5,0.8,0.8,0.7,0.4,0.3,west-northwest,2.1,No
2013/10/27,22:10,0.8,0.5,0.8,0.8,0.7,0.3,0.3,west,1.8,No
2013/10/27,22:20,0.8,0.5,0.8,0.8,0.7,0.4,0.3,northwest,1.9,No
2013/10/27,22:30,0.8,0.5,0.8,0.8,0.7,0.3,0.3,north-northwest,1.8,No
2013/10/27,22:40,0.8,0.5,0.8,0.8,0.7,0.3,0.3,north-northwest,2.5,No
2013/10/27,22:50,0.8,0.5,0.8,0.8,0.7,0.3,0.3,north-northwest,4.1,No
2013/10/27,23:00,0.8,0.5,0.8,0.8,0.7,0.3,0.3,north-northwest,1.9,No
2013/10/27,23:10,0.8,0.5,0.8,0.8,0.7,0.4,0.3,north-northwest,2.5,No
2013/10/27,23:20,0.8,0.5,0.8,0.8,0.7,0.3,0.3,northwest,2.2,No
2013/10/27,23:30,0.8,0.5,0.8,0.8,0.7,0.3,0.3,west-northwest,2.9,No
2013/10/27,23:40,0.8,0.5,0.8,0.8,0.7,0.3,0.3,west-northwest,4.4,No
2013/10/27,23:50,0.8,0.5,0.8,0.8,0.7,0.3,0.3,west,4.6,No
